Other Surface Observations
Issued by NWS

Home | Current Version | Previous Version | Text Only | Print | Product List | Glossary On
Versions: 1 2 3 4 5 6 7 8 9 10 11 12 13 14 15 16 17 18 19 20 21 22 23 24 25 26 27 28 29 30 31 32 33 34 35 36 37 38 39 40 41 42 43 44 45 46 47 48 49 50
543
SXUS52 KTAE 261718
OSOTAE
OSOTAE
North Florida/South Alabama/Southwest Georgia Weather Roundup
National Weather Service Tallahassee Florida
100 PM EDT FRI AUG 26 2016

Note: "fair" indicates few or no clouds below 12,000 feet with no
significant weather and/or obstructions to visibility.

!FLZ017-115-028-034-025-261800
...North Florida...

CITY           SKY/WX    TMP DP  RH WIND       PRES   REMARKS
TALLAHASSEE    PTSUNNY   92  67  43 NE8       30.05F HX  95
APALACHICOLA   MOSUNNY   90  76  63 E16       30.03F HX 101
PERRY          SUNNY     89  69  51 NE8G17    30.04F HX  92
CROSS CITY     MOSUNNY   90  72  55 NE8       30.02F HX  96
JACKSONVILLE   PTSUNNY   88  72  58 NE16      30.05F HX  94
$$

!FLZ112-006-005-002-011-261800
...Florida Panhandle...

CITY           SKY/WX    TMP DP  RH WIND       PRES   REMARKS
MARIANNA       SUNNY     89  69  51 E10       30.04F HX  93
BONIFAY        NOT AVBL
PANAMA CITY NW FAIR      91  69  48 E10       30.02F HX  96
TYNDALL AFB    MOSUNNY   88  72  59 E8        30.03F HX  94
TYND DRONE APT FAIR      88  73  60 E9        30.03F HX  96
DE FUNIAK SPR  FAIR      88  68  51 E10       30.07F HX  91
EGLIN AFB      MOSUNNY   90  69  50 SE10      30.04F HX  95
DESTIN         SUNNY     91  72  53 SE8       30.04F HX  98
HURLBURT       SUNNY     89  72  56 VRB7      30.03F HX  95
CRESTVIEW      SUNNY     91  67  44 E9G17     30.06F HX  94
PENSACOLA      MOSUNNY   90  69  50 E9        30.04F HX  94
$$

!ALZ063-066-261800
...South Alabama...

CITY           SKY/WX    TMP DP  RH WIND       PRES   REMARKS
DOTHAN         SUNNY     88  71  57 E7        30.11F HX  94
OZARK CAIRNS   SUNNY     90  69  49 E10       30.07F HX  94
FT RUCKER HELI SUNNY     89  68  49 E8        30.07F HX  93
RUCKER HELI 3  NOT AVBL
RUCKER HELI 2  FAIR      90  67  46 E10G18    30.07F HX  93
FLORALA APT    MOSUNNY   89  68  49 E12       30.08F HX  93
ANDALUSIA      MOSUNNY   94  67  41 E12       30.08F HX  97
TROY           SUNNY     90  68  48 E6        30.10F HX  94
EUFALA         FAIR      93  70  46 NE8       30.08F HX  99
MOBILE         PTSUNNY   89  69  51 SE9       30.06F HX  93
$$

!GAZ120>161-261800
...Southwest and South Central Georgia...

CITY           SKY/WX    TMP DP  RH WIND       PRES   REMARKS
THOMASVILLE    FAIR      90  68  48 NE13G18   30.07F HX  93
BAINBRIDGE     SUNNY     91  64  40 E6        30.07F HX  93
MOODY AFB      MOSUNNY   89  67  47 E14       30.05F HX  91
VALDOSTA       MOSUNNY   88  69  53 NE9       30.06F HX  92
MOULTRIE       MOSUNNY   90  64  43 E6        30.08S HX  91
BLAKELY        MOSUNNY   91  66  43 E8        30.08F HX  94
ALBANY         PTSUNNY   91  65  41 E10       30.09F HX  93
TIFTON         CLOUDY    87  67  51 NE8       30.07F HX  90
FITZGERALD     PTSUNNY   92  73  53 E7G16     30.10F HX 100
CORDELE        CLOUDY    91  68  46 E6        30.10S HX  94
AMERICUS       PTSUNNY   90  61  37 E9        30.11F
HOMERVILLE     FAIR      90  70  51 E9        30.07F HX  95
$$

!GMZ750-755-770-775-261800
...Coastal and Buoy Obs...

STATION/POSITION TIME  TEMP    WIND        PRES    VSBY  WAVE
                       AIR SEA DIR/SP/G                  HT/PER
                 (UTC) (F)     (DEG/KT/KT) (MB)    (MI)  (FT/S)
KEATON BEACH     1700   87      40/  6/ 10 1016.5F
CEDAR KEY        1700   86      70/  9/ 10 1016.5F
C TOWER          1700   83      90/ 15/ 17 1017.4F
APALACHICOLA BUO 1650   85 86   80/ 12/ 14 1015.8F         3/ 5
PANAMA CITY BUOY 1650   84 86   90/ 12/ 16 1016.3R         3/ 6
MOBILE BUOY      1700   84 87  120/  8/ 12 1016.3R
ORANGE BCH AL BU 1650   84 86   80/ 14/ 17 1016.9F         3/ 5
$$




USA.gov is the U.S. government's official web portal to all federal, state and local government web resources and services.